Vertical_Velocity
1 -4 -4 3 -0 2 -3 -4 -3 1 -0 -1 1 -1 -0 -1 -1 -3 -7 -5 -5 -3 -3 -4 -4 -8 -11
0 4 0 -2 1 -6 5 -0 -0 -1 1 -2 -5 -3 0 -1 -2 -4 -5 -3 -5 0 -4 -8 -8 -7 -7
-6 2 4 0 -9 -0 -0 2 -1 -1 -2 -5 1 1 -1 -3 -4 -1 -3 -0 -7 -6 -6 -8 -8 -8 -4
-1 -0 -10 -4 6 0 1 0 -7 -2 1 -5 1 -1 -2 -2 2 -2 -4 -3 -7 -6 -5 -4 -2 -6 -4
-12 -1 5 3 2 3 3 -3 -9 -4 1 -9 -3 -7 -4 -5 -2 -6 -6 -4 -5 -7 -3 -2 -2 -7 -6
8 -1 2 1 4 1 3 4 -4 -12 20 -18 -3 -7 -4 -5 -4 -9 -8 -7 -7 -5 -2 -1 -2 -6 -4
1 -0 2 2 -3 -0 2 -0 1 -1 3 16 2 2 -5 -5 -8 -8 -10 -7 -3 -4 -2 -1 -2 -1 -5
-2 2 0 0 1 1 0 3 -4 -8 -6 11 4 6 8 -9 -5 -11 -9 -10 -5 -3 -1 0 -1 -3 -0
3 -1 -4 0 5 -2 -2 -0 10 -1 -5 -4 -8 0 9 1 -1 -14 -10 -10 -4 -5 -2 -0 3 -1 3
-2 -1 0 0 -2 0 4 3 -1 8 -8 3 7 -4 15 16 13 -11 -5 -6 -1 -2 -1 -5 -1 0 3
1 1 -3 -0 1 -2 -1 -1 -3 -3 -9 -9 1 1 -6 -7 9 2 -2 4 4 -1 -3 -3 -3 -2 6
-2 -0 -0 1 -7 -3 -5 -1 -7 -10 -2 -9 -2 -6 -2 1 -1 5 -2 -0 -2 3 1 -2 -5 -3 -3
3 -3 -5 -2 -7 -5 -4 -0 -3 -10 -8 -8 -9 -4 -3 -8 -7 -4 -3 14 -4 -0 1 -1 -0 -3 -2
-4 -0 -3 -6 -4 -7 4 -2 -3 2 -17 -14 -7 -5 0 -8 -7 -2 -6 -5 5 -4 2 2 -0 -2 0
1 -7 -1 -4 -5 -4 -2 -4 -3 2 6 1 -11 -7 -3 -13 1 -3 -3 2 -4 4 -1 6 -1 -3 1
-7 -1 -2 2 3 -0 -2 -3 1 -0 -4 -9 -3 5 3 10 -28 2 -1 -2 1 -0 -3 5 6 -7 -0
-2 -1 3 -1 1 -0 -2 -3 0 -4 -6 -8 -6 -7 -1 2 11 -16 2 2 2 1 -5 -3 4 -2 2
Height
5706 5705 5706 5704 5703 5700 5699 5697 5697 5693 5689 5684 5679 5674 5670 5663 5657 5649 5643 5636 5628 5619 5609 5599 5588 5577 5566
5695 5695 5694 5692 5689 5689 5689 5689 5685 5680 5675 5670 5665 5660 5654 5647 5641 5633 5625 5617 5608 5597 5586 5576 5564 5552 5538
5685 5683 5682 5681 5681 5680 5678 5674 5670 5666 5663 5655 5651 5644 5638 5630 5623 5614 5606 5596 5587 5575 5562 5550 5536 5524 5511
5673 5671 5674 5673 5672 5669 5665 5662 5658 5653 5648 5641 5635 5627 5620 5613 5606 5595 5586 5576 5566 5554 5541 5525 5511 5499 5489
5667 5666 5665 5664 5660 5658 5654 5650 5645 5641 5633 5624 5617 5609 5601 5593 5585 5577 5568 5558 5546 5533 5520 5504 5490 5480 5470
5657 5656 5655 5651 5649 5647 5644 5640 5634 5628 5622 5607 5604 5593 5585 5576 5567 5557 5547 5536 5524 5510 5497 5485 5473 5463 5452
5647 5646 5643 5641 5638 5635 5631 5625 5618 5612 5609 5598 5587 5576 5565 5556 5545 5533 5524 5513 5501 5488 5477 5467 5457 5448 5438
5638 5635 5632 5630 5627 5624 5618 5611 5603 5596 5593 5585 5573 5563 5551 5535 5521 5508 5498 5488 5476 5466 5457 5449 5442 5434 5427
5626 5624 5622 5620 5616 5609 5603 5597 5590 5580 5574 5567 5557 5550 5538 5519 5500 5484 5473 5461 5453 5446 5439 5434 5427 5421 5416
5616 5615 5612 5606 5599 5594 5587 5580 5572 5566 5557 5552 5539 5528 5522 5504 5484 5463 5451 5439 5433 5427 5422 5418 5412 5407 5404
5606 5603 5597 5591 5584 5578 5571 5563 5555 5546 5537 5530 5520 5507 5491 5477 5465 5446 5433 5421 5414 5408 5405 5401 5397 5394 5392
5594 5590 5583 5575 5570 5562 5554 5546 5535 5529 5518 5507 5498 5483 5467 5454 5442 5428 5415 5403 5398 5393 5391 5387 5382 5379 5378
5582 5576 5570 5563 5554 5548 5540 5530 5519 5505 5494 5484 5473 5459 5444 5431 5421 5406 5396 5390 5381 5380 5378 5375 5371 5367 5366
5570 5564 5556 5549 5541 5534 5525 5514 5501 5486 5471 5463 5451 5437 5423 5407 5396 5387 5376 5373 5370 5369 5369 5365 5361 5357 5356
5558 5552 5543 5535 5525 5516 5506 5495 5483 5472 5457 5440 5425 5414 5400 5387 5380 5370 5367 5363 5361 5361 5360 5357 5352 5347 5346
5544 5536 5527 5519 5509 5498 5488 5477 5465 5450 5435 5420 5409 5399 5386 5373 5360 5358 5357 5355 5354 5352 5350 5349 5345 5339 5338
5528 5520 5513 5503 5492 5482 5470 5458 5445 5430 5414 5403 5392 5381 5373 5367 5357 5346 5350 5347 5347 5345 5342 5340 5337 5333 5330